Terug naar catalogus

STARLINK-34885

ActiefCommunicatieVLEO
NORAD 65328·PAYLOAD·🇺🇸 United States

Gelanceerd Aug 27, 2025 vanaf Cape Canaveral Space Force Station

Loading…

Volgende Passages (komende 24 uur)

TLE

VersSource: CelesTrak SupGP

Epoch: Sep 15, 2026, 03:28 UTC

1 65328C 25189F   26258.14493056 -.00001796  00000+0 -57761-4 0  2586
2 65328  53.1603  45.2760 0001091  78.8482 292.6079 15.31707221    11

Volg STARLINK-34885 in realtime met AllMySat

Download on the App Store